When you browse on this site, cookies collect data to enhance your experience and personalize the content and advertising you see.
Visit our Privacy Policy to learn more. By continuing to use the site, you agree to this use of cookies and data.
  • în România
  • Lista ţărilor
  • Pe 7 zile
  • Temperatura apei
  • Meteo pe hartă
  • Widget-uri
  • user-avatar
    Intrare

    Meteo pe oră la Wewak

    Astăzi, 25 Mai, Luni

    Timp Temperatura Precipitaţii Vânt Presiune Umiditate
    00:00 +28°C° 1.6 mm 3 m/s 757 mmHg 96%
    01:00 +27°C° 1.6 mm 3 m/s 756 mmHg 96%
    02:00 +27°C° 0.7 mm 3 m/s 756 mmHg 96%
    03:00 +27°C° 0.7 mm 3 m/s 756 mmHg 96%
    04:00 +27°C° 0 mm 3 m/s 756 mmHg 96%
    05:00 +27°C° 0.7 mm 2 m/s 756 mmHg 96%
    06:00 +27°C° 0.7 mm 2 m/s 756 mmHg 96%
    07:00 +27°C° 0.7 mm 2 m/s 757 mmHg 96%
    08:00 +29°C° 0.3 mm 1 m/s 757 mmHg 88%
    09:00 +31°C° 0.3 mm 1 m/s 757 mmHg 80%
    10:00 +34°C° 0 mm 2 m/s 758 mmHg 74%
    11:00 +34°C° 0.4 mm 2 m/s 757 mmHg 74%
    12:00 +34°C° 0.4 mm 2 m/s 757 mmHg 74%
    13:00 +34°C° 0.4 mm 3 m/s 756 mmHg 75%
    14:00 +34°C° 0.2 mm 3 m/s 756 mmHg 74%
    15:00 +33°C° 0.2 mm 3 m/s 755 mmHg 73%
    16:00 +33°C° 0 mm 3 m/s 755 mmHg 72%
    17:00 +31°C° 0 mm 2 m/s 755 mmHg 78%
    18:00 +29°C° 0 mm 2 m/s 755 mmHg 83%
    19:00 +28°C° 0 mm 1 m/s 756 mmHg 88%
    20:00 +28°C° 0 mm 1 m/s 756 mmHg 89%
    21:00 +28°C° 0 mm 1 m/s 757 mmHg 90%
    22:00 +27°C° 0 mm 1 m/s 757 mmHg 89%
    23:00 +27°C° 0 mm 1 m/s 757 mmHg 91%

    Mâine, 26 Mai, Marţi

    Timp Temperatura Precipitaţii Vânt Presiune Umiditate
    00:00 +27°C° 0 mm 1 m/s 757 mmHg 92%
    01:00 +25°C° 0 mm 0 m/s 757 mmHg 93%
    02:00 +27°C° 0.1 mm 1 m/s 757 mmHg 94%
    03:00 +27°C° 0.1 mm 1 m/s 757 mmHg 95%
    04:00 +26°C° 0.1 mm 1 m/s 756 mmHg 95%
    05:00 +26°C° 0 mm 1 m/s 757 mmHg 95%
    06:00 +26°C° 0 mm 1 m/s 757 mmHg 95%
    07:00 +27°C° 0 mm 2 m/s 757 mmHg 95%
    08:00 +29°C° 0 mm 2 m/s 757 mmHg 86%
    09:00 +31°C° 0 mm 1 m/s 757 mmHg 76%
    10:00 +33°C° 0 mm 1 m/s 757 mmHg 67%
    11:00 +34°C° 0 mm 2 m/s 757 mmHg 68%
    12:00 +34°C° 0 mm 2 m/s 756 mmHg 69%
    13:00 +32°C° 0 mm 2 m/s 755 mmHg 71%
    14:00 +32°C° 0.1 mm 2 m/s 755 mmHg 72%
    15:00 +33°C° 0.1 mm 3 m/s 754 mmHg 73%
    16:00 +33°C° 0.1 mm 3 m/s 754 mmHg 74%
    17:00 +31°C° 0 mm 3 m/s 754 mmHg 79%
    18:00 +29°C° 0 mm 3 m/s 755 mmHg 85%
    19:00 +28°C° 0 mm 3 m/s 756 mmHg 90%
    20:00 +28°C° 0.2 mm 2 m/s 756 mmHg 92%
    21:00 +28°C° 0.2 mm 2 m/s 757 mmHg 93%
    22:00 +28°C° 0.2 mm 2 m/s 757 mmHg 95%
    23:00 +27°C° 0.4 mm 2 m/s 757 mmHg 95%

    Poimâine, 27 Mai, Miercuri

    Timp Temperatura Precipitaţii Vânt Presiune Umiditate
    00:00 +27°C° 0.4 mm 2 m/s 757 mmHg 95%
    01:00 +27°C° 0.4 mm 2 m/s 757 mmHg 96%
    02:00 +27°C° 0 mm 2 m/s 756 mmHg 96%
    03:00 +27°C° 0 mm 2 m/s 756 mmHg 96%
    04:00 +27°C° 0 mm 2 m/s 756 mmHg 97%
    05:00 +27°C° 0.1 mm 2 m/s 756 mmHg 97%
    06:00 +27°C° 0.1 mm 2 m/s 757 mmHg 97%
    07:00 +27°C° 0.1 mm 2 m/s 757 mmHg 97%
    08:00 +28°C° 0.3 mm 2 m/s 757 mmHg 90%
    09:00 +30°C° 0.3 mm 2 m/s 757 mmHg 83%
    10:00 +31°C° 0.3 mm 2 m/s 757 mmHg 76%
    11:00 +32°C° 0 mm 2 m/s 757 mmHg 71%
    12:00 +34°C° 0 mm 2 m/s 756 mmHg 65%
    13:00 +35°C° 0 mm 2 m/s 756 mmHg 60%
    14:00 +35°C° 0 mm 3 m/s 755 mmHg 62%
    15:00 +34°C° 0 mm 3 m/s 755 mmHg 65%
    16:00 +33°C° 0 mm 3 m/s 754 mmHg 67%
    17:00 +31°C° 0 mm 3 m/s 755 mmHg 74%
    18:00 +30°C° 0 mm 3 m/s 755 mmHg 82%
    19:00 +28°C° 0 mm 2 m/s 756 mmHg 89%
    20:00 +28°C° 0.3 mm 3 m/s 756 mmHg 91%
    21:00 +28°C° 0.3 mm 3 m/s 756 mmHg 93%
    22:00 +28°C° 0.3 mm 3 m/s 757 mmHg 95%
    23:00 +28°C° 0.9 mm 3 m/s 757 mmHg 95%

    28 Mai, Joi

    Timp Temperatura Precipitaţii Vânt Presiune Umiditate
    00:00 +27°C° 0.9 mm 3 m/s 756 mmHg 96%
    01:00 +27°C° 0.9 mm 2 m/s 756 mmHg 96%
    02:00 +27°C° 1.1 mm 2 m/s 756 mmHg 97%
    03:00 +27°C° 1.1 mm 2 m/s 756 mmHg 97%
    04:00 +27°C° 1.1 mm 2 m/s 756 mmHg 97%
    05:00 +27°C° 0.9 mm 2 m/s 756 mmHg 98%
    06:00 +27°C° 0.9 mm 2 m/s 757 mmHg 98%
    07:00 +27°C° 0.9 mm 2 m/s 757 mmHg 98%
    08:00 +28°C° 0.4 mm 2 m/s 757 mmHg 93%
    09:00 +29°C° 0.4 mm 2 m/s 758 mmHg 89%
    10:00 +30°C° 0.4 mm 2 m/s 758 mmHg 84%
    11:00 +31°C° 0.4 mm 2 m/s 757 mmHg 82%
    12:00 +31°C° 0.4 mm 2 m/s 757 mmHg 80%
    13:00 +31°C° 0.4 mm 2 m/s 756 mmHg 78%
    14:00 +31°C° 0.3 mm 3 m/s 756 mmHg 76%
    15:00 +31°C° 0.3 mm 3 m/s 756 mmHg 73%
    16:00 +31°C° 0.3 mm 3 m/s 755 mmHg 71%
    17:00 +30°C° 0.3 mm 3 m/s 756 mmHg 76%
    18:00 +29°C° 0.3 mm 4 m/s 756 mmHg 82%
    19:00 +28°C° 0.3 mm 4 m/s 757 mmHg 87%
    20:00 +28°C° 1 mm 4 m/s 757 mmHg 90%
    21:00 +27°C° 1 mm 5 m/s 758 mmHg 93%
    22:00 +27°C° 1 mm 5 m/s 758 mmHg 96%
    23:00 +27°C° 1 mm 4 m/s 758 mmHg 96%

    29 Mai, Vineri

    Timp Temperatura Precipitaţii Vânt Presiune Umiditate
    00:00 +27°C° 1 mm 4 m/s 758 mmHg 97%
    01:00 +27°C° 1 mm 3 m/s 757 mmHg 97%
    02:00 +27°C° 1.6 mm 3 m/s 757 mmHg 97%
    03:00 +26°C° 1.6 mm 3 m/s 757 mmHg 97%
    04:00 +26°C° 1.6 mm 2 m/s 756 mmHg 97%
    05:00 +26°C° 2.4 mm 2 m/s 757 mmHg 97%
    06:00 +26°C° 2.4 mm 2 m/s 757 mmHg 98%
    07:00 +26°C° 2.4 mm 2 m/s 758 mmHg 98%
    08:00 +27°C° 1.6 mm 2 m/s 758 mmHg 95%
    09:00 +28°C° 1.6 mm 3 m/s 758 mmHg 93%
    10:00 +28°C° 1.6 mm 3 m/s 758 mmHg 90%
    11:00 +28°C° 4.4 mm 3 m/s 758 mmHg 93%
    12:00 +27°C° 4.4 mm 2 m/s 758 mmHg 95%
    13:00 +26°C° 4.4 mm 2 m/s 757 mmHg 97%
    14:00 +26°C° 1.5 mm 2 m/s 757 mmHg 97%
    15:00 +26°C° 1.5 mm 2 m/s 756 mmHg 97%
    16:00 +26°C° 1.5 mm 2 m/s 756 mmHg 97%
    17:00 +26°C° 0.1 mm 2 m/s 756 mmHg 96%
    18:00 +26°C° 0.1 mm 2 m/s 757 mmHg 96%
    19:00 +25°C° 0.1 mm 2 m/s 757 mmHg 96%
    20:00 +25°C° 0 mm 2 m/s 757 mmHg 96%
    21:00 +25°C° 0 mm 2 m/s 758 mmHg 97%
    22:00 +25°C° 0 mm 2 m/s 758 mmHg 97%
    23:00 +25°C° 0 mm 2 m/s 758 mmHg 97%

    30 Mai, Sâmbătă

    Timp Temperatura Precipitaţii Vânt Presiune Umiditate
    00:00 +25°C° 0 mm 2 m/s 757 mmHg 97%
    01:00 +25°C° 0 mm 2 m/s 757 mmHg 98%
    02:00 +25°C° 0 mm 2 m/s 757 mmHg 97%
    03:00 +25°C° 0 mm 2 m/s 757 mmHg 97%
    04:00 +25°C° 0 mm 2 m/s 756 mmHg 97%
    05:00 +25°C° 0 mm 2 m/s 757 mmHg 97%
    06:00 +25°C° 0 mm 2 m/s 757 mmHg 97%
    07:00 +25°C° 0 mm 2 m/s 757 mmHg 97%
    08:00 +26°C° 0 mm 2 m/s 757 mmHg 91%
    09:00 +28°C° 0 mm 2 m/s 757 mmHg 84%
    10:00 +30°C° 0 mm 2 m/s 757 mmHg 77%
    11:00 +32°C° 0 mm 2 m/s 757 mmHg 70%
    12:00 +34°C° 0 mm 2 m/s 756 mmHg 62%
    13:00 +36°C° 0 mm 2 m/s 755 mmHg 54%
    14:00 +35°C° 0 mm 2 m/s 755 mmHg 59%
    15:00 +34°C° 0 mm 3 m/s 755 mmHg 63%
    16:00 +33°C° 0 mm 3 m/s 754 mmHg 68%
    17:00 +31°C° 0.1 mm 3 m/s 755 mmHg 76%
    18:00 +29°C° 0.1 mm 3 m/s 755 mmHg 84%
    19:00 +27°C° 0.1 mm 3 m/s 756 mmHg 91%
    20:00 +27°C° 0.1 mm 3 m/s 756 mmHg 92%
    21:00 +27°C° 0.1 mm 3 m/s 757 mmHg 93%
    22:00 +27°C° 0.1 mm 3 m/s 757 mmHg 94%
    23:00 +27°C° 0.8 mm 2 m/s 757 mmHg 95%
    Arată mai mult